EW9455 Weather Reports


Display with metric or nautical units.
time (UTC)temp
F
wind
direction
speed
MPH
gust
MPH
rain 1hr
in
rain 24hr
in
rain mn
in
humidity
%
barometer
mb
20181021184015 76 47 9.0 20.0 0.00 0.01 0.00 66 1016.2
20181021183015 78 29 9.0 17.0 0.00 0.01 0.00 65 1017.6
20181021182016 77 36 9.0 19.0 0.00 0.01 0.00 66 1017.6
20181021181015 77 41 9.0 18.0 0.00 0.01 0.00 66 1095.8
20181021180015 77 33 10.0 20.0 0.00 0.01 0.00 65 1095.8
20181021175015 77 45 7.0 18.0 0.00 0.01 0.00 65 1095.8
20181021174015 77 33 8.0 17.0 0.00 0.01 0.00 65 1015.7
20181021173015 78 25 9.0 18.0 0.00 0.01 0.00 66 1015.7
20181021172015 77 21 7.0 15.0 0.00 0.01 0.00 66 1011.7
20181021171015 78 39 8.0 16.0 0.00 0.01 0.00 66 1016.7
20181021170255 78 38 6.0 17.0 0.00 0.01 0.00 69 1016.7
20181021164015 77 30 8.0 17.0 0.00 0.01 0.00 69 1016.8
20181021163017 77 29 8.0 17.0 0.00 0.01 0.00 69 1016.8
20181021162016 77 29 8.0 17.0 0.00 0.01 0.00 70 1016.9
20181021161017 77 29 9.0 17.0 0.00 0.01 0.00 69 1016.8
20181021160017 76 21 9.0 17.0 0.00 0.01 0.00 72 1016.9
20181021155017 77 27 7.0 17.0 0.00 0.01 0.00 71 1016.9
20181021154017 77 16 8.0 17.0 0.00 0.01 0.00 73 1017.0
20181021153017 76 30 9.0 16.0 0.00 0.01 0.00 74 1017.0
20181021152016 76 27 8.0 17.0 0.00 0.01 0.00 75 1017.0
20181021151017 76 26 5.0 16.0 0.00 0.01 0.00 76 1017.0
20181021150016 76 10 5.0 16.0 0.00 0.01 0.00 77 1016.9
20181021145017 76 11 6.0 13.0 0.00 0.01 0.00 77 1016.9
20181021144016 76 3 7.0 14.0 0.00 0.01 0.00 79 1016.9
20181021143016 76 25 7.0 15.0 0.00 0.01 0.00 80 1016.8
20181021142016 76 13 4.0 16.0 0.00 0.01 0.00 80 1016.7
20181021141016 76 6 5.0 11.0 0.00 0.01 0.00 80 1016.6
20181021140016 76 12 4.0 12.0 0.00 0.01 0.00 80 1016.5
20181021135016 76 0 3.0 9.0 0.00 0.01 0.00 80 1016.5
20181021134017 76 355 2.0 6.0 0.00 0.01 0.00 81 1016.4
20181021133018 75 339 1.0 8.0 0.00 0.01 0.00 81 1016.4
20181021132016 74 335 2.0 10.0 0.00 0.01 0.00 82 1016.3
20181021131016 74 326 3.0 12.0 0.00 0.01 0.00 82 1016.3
20181021130016 74 0 2.0 9.0 0.00 0.01 0.00 82 1014.7
20181021125016 74 346 0.0 8.0 0.00 0.01 0.00 83 1016.1
20181021124016 73 334 0.0 3.0 0.00 0.01 0.00 83 1015.9
20181021123016 73 36 0.0 3.0 0.00 0.01 0.00 84 1015.9
20181021122016 73 355 0.0 5.0 0.00 0.01 0.00 84 1015.7
20181021121016 72 344 0.0 1.0 0.00 0.01 0.00 84 1015.7
20181021120016 72 344 0.0 3.0 0.00 0.01 0.00 84 1015.7
20181021115017 72 0.0 0.0 0.00 0.01 0.00 84 1015.3
20181021114016 72 306 0.0 1.0 0.00 0.01 0.00 84 1015.3
20181021113016 72 0.0 0.0 0.00 0.01 0.00 84 1015.2
20181021112016 72 0.0 0.0 0.00 0.01 0.00 84 1015.0
20181021111016 72 0.0 0.0 0.00 0.01 0.00 84 1014.8
20181021110016 72 0.0 0.0 0.00 0.01 0.00 84 1015.9
20181021105015 71 0.0 0.0 0.00 0.01 0.00 84 1092.1
20181021104016 71 0.0 0.0 0.00 0.01 0.00 84 1047.4
20181021103016 71 0.0 0.0 0.00 0.01 0.00 84 1013.9
20181021102015 71 0.0 0.0 0.00 0.01 0.00 84 1013.9
20181021101015 71 0.0 0.0 0.00 0.01 0.00 84 1013.9
20181021100016 71 0.0 0.0 0.00 0.01 0.00 84 1013.9
20181021095015 71 0.0 0.0 0.00 0.01 0.00 84 1013.9
20181021094015 71 0.0 0.0 0.00 0.01 0.00 84 1013.9
20181021093015 72 0.0 0.0 0.00 0.01 0.00 84 1009.5
20181021092015 72 0.0 0.0 0.00 0.01 0.00 84 1009.5
20181021091015 72 0.0 0.0 0.00 0.01 0.00 84 1009.9
20181021090015 72 0.0 0.0 0.00 0.01 0.00 84 1011.8
20181021085015 72 0.0 0.0 0.00 0.01 0.00 84 1013.7
20181021084015 72 0.0 0.0 0.00 0.01 0.00 84 1013.6
20181021083015 72 0.0 0.0 0.00 0.01 0.00 84 1012.0
20181021082015 73 0.0 0.0 0.00 0.01 0.00 84 1012.1
20181021081015 73 0.0 0.0 0.00 0.01 0.00 83 1013.1
20181021080015 73 0.0 0.0 0.00 0.01 0.00 84 1011.7
20181021075015 73 0.0 0.0 0.00 0.01 0.00 83 1030.5
20181021074015 73 0.0 0.0 0.00 0.01 0.00 83 1012.2
20181021073015 73 0.0 0.0 0.00 0.01 0.00 83 1013.6
20181021072017 73 0.0 0.0 0.00 0.01 0.00 83 1013.6
20181021071017 73 0.0 0.0 0.00 0.01 0.00 83 1013.6
20181021070017 74 0.0 0.0 0.00 0.01 0.00 83 1013.6
20181021065016 74 0.0 0.0 0.00 0.01 0.00 83 1013.7
20181021064017 74 0.0 0.0 0.00 0.01 0.00 83 1013.8
20181021063017 75 0.0 0.0 0.00 0.01 0.00 83 1013.8
20181021062017 75 0.0 0.0 0.00 0.01 0.00 83 1013.9
20181021061016 75 0.0 0.0 0.00 0.01 0.00 83 1014.0
20181021060017 75 0.0 0.0 0.00 0.01 0.00 83 1014.1
20181021055017 75 0.0 0.0 0.00 0.01 0.00 83 1014.2
20181021054016 75 0.0 0.0 0.00 0.01 0.00 83 1014.3
20181021053016 75 0.0 0.0 0.00 0.01 0.00 82 1014.3
20181021052016 75 0.0 0.0 0.00 0.01 0.00 82 1014.4
20181021051017 75 0.0 0.0 0.00 0.01 0.00 82 1014.5
20181021050016 76 0.0 0.0 0.00 0.01 0.00 82 1014.6
20181021045016 76 0.0 0.0 0.00 0.01 0.00 82 1014.6
20181021044016 76 0.0 0.0 0.00 0.01 0.00 82 1014.7
20181021043016 76 0.0 0.0 0.00 0.01 0.00 82 1014.7
20181021042016 76 0.0 0.0 0.00 0.01 0.00 82 1014.7
20181021041016 77 0.0 0.0 0.00 0.01 0.00 82 1014.8
20181021040016 77 220 0.0 1.0 0.00 0.01 0.01 81 1014.9
20181021035017 77 0.0 0.0 0.00 0.01 0.01 81 1015.0
20181021034017 77 0.0 0.0 0.00 0.01 0.01 81 1015.0
20181021033017 77 0.0 0.0 0.01 0.01 0.01 81 1015.0
20181021032017 77 0.0 0.0 0.01 0.01 0.01 81 1015.0
20181021031016 77 0.0 0.0 0.01 0.01 0.01 81 1015.1
20181021030016 78 0.0 0.0 0.01 0.01 0.01 81 1015.1
20181021025017 77 0.0 0.0 0.01 0.01 0.01 81 1015.1
20181021024017 77 0.0 0.0 0.01 0.01 0.01 81 1015.0
20181021023016 77 0.0 0.0 0.00 0.00 0.00 81 1015.0
20181021022016 77 0.0 0.0 0.00 0.00 0.00 81 1015.0
20181021021016 78 292 0.0 1.0 0.00 0.00 0.00 80 1015.0
20181021020016 78 0.0 6.0 0.00 0.00 0.00 80 1014.8
20181021015018 78 256 2.0 12.0 0.00 0.00 0.00 80 1014.7
20181021014016 78 259 3.0 7.0 0.00 0.00 0.00 79 1014.6
20181021013016 79 231 0.0 5.0 0.00 0.00 0.00 79 1014.2
20181021012016 79 179 0.0 4.0 0.00 0.00 0.00 79 1013.9
20181021011016 79 164 0.0 3.0 0.00 0.00 0.00 79 1013.9
20181021010016 79 0.0 0.0 0.00 0.00 0.00 79 1013.8
20181021005016 79 0.0 0.0 0.00 0.00 0.00 79 1013.8
20181021004016 79 0.0 1.0 0.00 0.00 0.00 79 1013.7
20181021003016 79 153 0.0 1.0 0.00 0.00 0.00 79 1013.6
20181021002016 80 175 0.0 1.0 0.00 0.00 0.00 78 1013.6
20181021001016 80 175 0.0 1.0 0.00 0.00 0.00 78 1013.5
20181021000016 80 0.0 0.0 0.00 0.00 0.00 77 1013.4
20181020235016 81 170 0.0 3.0 0.00 0.00 0.00 77 1013.3
20181020234016 81 149 0.0 1.0 0.00 0.00 0.00 76 1013.4
20181020233016 81 159 0.0 2.0 0.00 0.00 0.00 76 1013.3
20181020232016 81 159 0.0 6.0 0.00 0.00 0.00 75 1013.1
20181020231016 82 167 0.0 4.0 0.00 0.00 0.00 74 1013.1
20181020230016 82 152 0.0 3.0 0.00 0.00 0.00 74 1013.1
20181020225016 82 129 1.0 8.0 0.00 0.00 0.00 73 1012.9
20181020224016 83 153 4.0 11.0 0.00 0.00 0.00 72 1012.8
20181020223016 83 131 3.0 7.0 0.00 0.00 0.00 72 1012.8
20181020222016 84 119 4.0 8.0 0.00 0.00 0.00 71 1012.7
20181020221015 84 133 4.0 9.0 0.00 0.00 0.00 70 1012.8
20181020220015 85 130 2.0 7.0 0.00 0.00 0.00 71 1012.7
20181020215016 85 120 4.0 8.0 0.00 0.00 0.00 70 1012.7
20181020214016 85 122 3.0 7.0 0.00 0.00 0.00 70 1012.7
20181020213015 85 132 2.0 7.0 0.00 0.00 0.00 70 1012.8
20181020212015 85 116 1.0 8.0 0.00 0.00 0.00 70 1012.8
20181020211015 85 99 2.0 9.0 0.00 0.00 0.00 70 1012.9
20181020210015 85 120 0.0 7.0 0.00 0.00 0.00 69 1013.0
20181020205015 84 126 1.0 7.0 0.00 0.00 0.00 70 1013.0
20181020204015 85 119 3.0 7.0 0.00 0.00 0.00 69 1013.1
20181020203015 88 161 0.0 4.0 0.00 0.00 0.00 62 1013.1
20181020202015 91 245 0.0 3.0 0.00 0.00 0.00 54 1013.2
20181020201015 92 195 1.0 4.0 0.00 0.00 0.00 53 1013.3
20181020200015 91 208 1.0 4.0 0.00 0.00 0.00 55 1013.4
20181020195015 90 284 2.0 6.0 0.00 0.00 0.00 55 1013.3
20181020194015 89 281 2.0 6.0 0.00 0.00 0.00 58 1013.4
20181020193015 89 0.0 2.0 0.00 0.00 0.00 59 1013.5
20181020192015 89 15 1.0 5.0 0.00 0.00 0.00 59 1013.7
20181020191015 88 331 3.0 8.0 0.00 0.00 0.00 59 1013.7
20181020190015 89 311 3.0 8.0 0.00 0.00 0.00 57 1013.9
20181020185015 89 273 0.0 7.0 0.00 0.00 0.00 60 1014.2